Wind_Speed
14 16 17 18 19 21 23 24 26 26 27 29 32 34 35 36 37 38 38 39 40 42 42 41 40 39 37 34 32 31 28 27 26 25 23 19 18 17 15 14 15 18 21 22
13 17 18 18 19 21 23 25 28 30 32 32 34 35 36 37 40 43 42 41 41 42 42 41 40 39 36 32 30 29 26 24 23 22 18 16 15 14 13 11 10 12 16 18
15 18 19 21 23 25 26 28 32 36 39 41 41 40 38 37 39 43 43 42 42 42 42 41 41 40 36 33 31 29 27 24 22 20 17 15 15 14 13 10 9 7 8 11
22 23 25 22 30 31 31 31 35 39 41 44 44 42 42 43 45 45 45 44 43 42 42 42 41 40 37 33 32 30 28 26 23 19 16 14 14 14 13 10 9 9 9 10
27 29 31 32 36 38 40 41 43 43 45 46 46 46 46 48 49 48 47 48 47 44 41 41 41 41 38 33 32 30 28 26 22 18 15 14 14 13 12 13 12 13 12 12
31 34 39 41 43 44 46 49 51 52 54 54 55 55 54 53 52 50 48 48 49 46 42 40 39 39 38 33 31 30 28 24 21 17 15 13 13 13 13 14 16 17 17 16
38 41 43 48 48 49 51 52 54 56 57 58 59 59 59 58 57 53 50 48 48 47 44 39 38 37 36 33 31 30 27 22 19 17 16 14 13 13 13 14 15 16 17 16
41 43 46 49 52 53 55 57 59 60 62 62 63 63 62 61 58 56 52 47 45 45 43 39 37 36 34 33 32 30 27 23 20 18 17 16 15 13 12 12 11 11 11 10
44 47 51 52 53 55 58 60 61 63 64 66 67 68 68 66 64 61 57 50 44 43 43 39 37 37 35 33 33 32 30 27 24 21 19 17 15 13 12 10 9 9 8 7
44 49 53 54 55 58 61 63 66 68 68 70 73 73 69 66 65 65 63 57 48 44 44 41 38 39 34 32 32 33 33 32 29 25 22 19 16 14 12 10 10 9 8 7
47 51 54 57 60 63 66 69 72 74 75 74 74 71 66 66 68 65 61 58 53 48 46 44 42 40 34 32 32 33 34 35 32 29 25 21 17 15 14 12 11 10 9 8
51 54 58 63 67 70 73 75 77 78 77 77 77 78 76 74 74 73 69 63 55 50 48 47 44 41 37 35 34 34 35 37 35 31 28 24 20 17 15 14 13 12 10 9
56 62 66 70 73 75 77 79 79 78 77 78 78 76 72 69 67 68 69 66 60 52 46 44 44 43 40 38 37 36 35 37 38 35 31 28 25 21 18 16 15 14 13 11
66 69 71 73 76 77 77 76 73 68 63 59 56 53 51 49 48 47 48 47 49 50 46 45 45 45 45 44 41 38 36 36 39 38 34 31 29 27 24 21 19 17 17 16
72 74 75 76 77 74 68 61 56 51 48 46 46 46 45 43 40 36 35 35 37 43 46 44 44 45 48 49 43 39 37 34 38 40 37 34 31 29 27 25 23 21 21 20
74 75 76 75 72 64 54 47 45 44 43 42 40 39 38 37 37 37 37 36 34 35 43 44 42 43 46 49 46 39 37 33 34 39 40 38 34 31 28 25 22 20 20 21
76 76 74 71 63 52 46 45 45 47 47 46 46 45 44 42 41 40 39 37 36 33 36 41 41 40 42 45 45 40 39 33 31 36 40 40 38 34 30 26 23 21 20 21
73 71 65 60 54 49 46 47 49 51 52 51 51 49 47 44 41 39 38 37 36 32 32 38 39 37 38 41 42 40 40 32 28 30 36 39 40 39 34 29 25 23 22 21
67 61 56 52 49 47 47 49 52 53 54 53 51 49 47 44 41 38 36 34 32 28 30 37 37 34 35 37 38 39 39 31 26 28 31 36 39 39 36 31 28 26 23 20
57 53 50 47 45 45 48 52 54 54 53 53 52 50 48 45 41 37 33 31 28 25 31 36 35 32 32 34 35 37 36 29 25 25 26 29 32 33 32 29 27 23 20 18
51 49 46 44 43 45 49 52 54 53 52 51 51 51 48 42 37 32 29 24 21 23 31 35 34 31 29 32 34 37 35 29 25 21 21 24 27 28 27 25 23 20 18 16
47 46 43 41 43 46 48 50 51 52 50 50 49 48 44 36 28 23 20 17 18 24 29 31 30 28 28 31 34 36 33 28 23 21 22 25 25 25 24 23 20 17 15 14
44 42 39 39 42 44 44 46 48 49 49 49 45 41 35 27 19 13 11 15 21 25 27 26 26 26 28 32 36 35 31 25 21 22 24 25 24 23 22 20 18 16 14 13
39 36 35 37 38 39 41 43 45 47 48 47 43 36 29 21 12 4 13 21 24 25 25 24 23 24 28 34 36 34 29 24 21 22 24 24 23 21 19 17 15 13 12 10
35 32 31 33 33 34 38 42 45 47 48 46 41 33 24 15 4 11 20 24 24 23 21 19 18 24 31 35 36 32 27 23 22 24 25 23 21 19 17 16 14 12 10 8
30 28 28 28 28 32 37 43 47 50 49 46 39 31 20 11 11 19 22 22 20 17 14 13 15 21 28 33 33 31 27 26 26 26 25 23 21 18 16 15 14 13 11 9
25 24 23 22 25 29 35 42 46 49 47 43 37 28 18 12 18 24 23 21 16 12 10 11 14 20 26 30 32 31 30 29 28 25 23 21 19 17 15 14 14 13 12 12
Wind_Direction
295 293 292 295 295 293 292 294 295 298 295 295 293 297 302 305 304 303 305 310 312 312 312 315 315 307 296 290 288 287 290 297 303 307 309 305 300 297 292 283 267 249 240 236
307 303 305 306 301 297 299 300 298 298 296 297 300 303 305 305 303 302 304 307 309 311 312 314 316 313 300 290 287 286 288 294 299 303 304 298 296 300 298 298 282 256 241 238
314 312 310 306 302 304 305 304 300 298 299 301 303 302 302 302 301 300 301 302 304 307 310 312 313 315 306 290 285 285 285 288 292 296 296 292 291 293 297 298 292 275 254 245
314 312 314 309 305 305 306 302 296 294 296 298 298 298 299 299 298 299 301 302 302 303 305 307 310 311 309 292 283 282 282 283 284 288 288 287 287 286 280 275 276 278 269 258
313 311 310 307 303 306 308 307 302 300 297 295 296 296 296 295 296 295 294 296 298 299 299 300 304 307 308 296 281 279 280 280 278 281 281 281 278 274 268 266 268 271 268 263
311 311 312 307 304 305 305 307 303 301 299 299 298 297 296 295 294 292 289 290 293 295 294 293 295 299 304 297 279 276 278 276 274 278 280 279 274 268 264 265 266 269 269 267
312 311 309 303 303 302 303 301 298 298 298 297 297 297 296 296 294 292 289 288 288 289 288 287 288 291 296 293 278 272 273 269 266 276 283 285 279 269 266 266 263 262 265 269
307 305 301 300 300 300 299 298 298 298 297 296 295 294 293 293 292 290 288 285 284 283 284 281 280 284 288 287 278 268 263 259 258 270 282 287 279 267 261 258 251 242 246 251
307 303 300 301 302 301 300 299 298 297 296 294 292 291 290 289 289 288 286 283 278 276 277 274 272 274 278 280 275 265 254 253 255 262 273 278 271 257 247 240 225 208 209 216
306 303 305 305 303 302 301 299 297 295 293 290 289 288 287 286 285 284 283 280 275 270 268 264 260 264 267 270 270 263 251 248 252 256 262 267 264 248 235 224 209 203 208 216
306 307 306 304 304 303 301 299 297 295 294 292 290 288 284 280 278 277 276 276 274 270 266 258 253 258 263 266 264 261 250 244 247 250 254 256 253 239 228 221 211 213 223 233
310 309 307 307 306 304 302 300 298 296 294 292 290 288 285 282 279 277 275 274 273 269 267 263 253 253 257 260 260 257 250 241 240 243 246 248 245 237 228 225 221 222 227 231
312 311 311 310 308 306 304 302 301 299 296 293 292 294 295 294 290 285 281 279 273 266 263 257 249 248 249 251 253 252 249 241 235 237 241 243 241 238 233 229 227 229 235 240
316 316 314 313 310 308 306 306 307 308 307 306 305 305 304 304 302 297 290 284 271 257 252 248 242 241 242 243 244 244 244 241 233 231 235 237 238 239 238 237 236 237 242 250
320 318 316 314 312 312 313 315 318 319 318 316 313 310 308 306 304 302 299 292 274 253 245 241 235 235 240 241 241 237 236 238 232 227 228 231 233 236 239 241 242 245 249 255
319 317 315 314 316 318 319 321 322 323 320 318 314 309 304 302 301 299 298 294 283 260 242 236 232 235 239 240 237 231 227 233 232 227 225 227 230 234 238 242 244 247 252 256
318 317 317 317 319 319 320 321 322 322 320 317 312 307 302 300 297 295 294 290 288 269 239 228 228 233 238 237 233 223 220 229 235 231 227 227 228 232 237 241 244 249 253 257
317 316 317 319 320 320 321 322 322 321 320 318 315 312 307 303 298 294 292 288 289 271 235 220 220 226 231 232 229 216 213 225 236 236 231 230 230 232 234 237 242 249 253 255
316 317 319 320 321 322 324 324 324 322 321 320 318 316 312 307 299 292 289 287 288 267 227 212 212 219 224 225 221 210 210 221 235 242 240 234 230 229 230 233 239 245 246 246
317 319 320 321 322 323 324 324 324 322 321 321 319 316 313 308 300 290 282 281 279 250 214 205 208 212 216 217 212 204 205 216 231 243 239 229 222 220 222 227 232 232 233 238
319 322 323 323 324 326 327 327 326 325 324 324 321 317 314 310 301 288 276 270 257 223 203 201 205 207 211 211 207 202 203 214 227 232 221 206 202 205 212 217 218 220 225 233
322 324 326 326 328 331 332 332 331 330 329 328 327 323 318 313 302 287 269 247 215 195 191 195 201 205 209 208 204 201 203 211 221 218 204 195 195 198 202 205 209 215 222 232
324 326 328 330 335 338 340 340 339 337 335 336 336 331 327 323 310 284 237 195 178 176 180 188 196 201 204 201 197 197 201 209 215 209 199 194 194 194 194 197 203 210 219 233
326 329 332 336 342 345 346 347 347 345 344 345 344 340 336 333 320 247 170 161 161 166 174 182 189 191 189 187 189 192 197 207 210 202 193 189 190 191 194 198 204 209 219 235
329 331 335 341 346 350 352 354 354 353 351 352 353 352 349 352 32 138 145 148 154 164 173 180 180 178 179 181 184 188 195 201 196 188 185 184 185 188 192 197 203 210 219 235
330 332 338 344 346 350 353 355 357 358 358 359 360 3 12 35 102 127 132 136 143 155 167 171 165 167 174 181 184 188 190 188 183 181 180 180 181 186 194 202 210 217 223 235
329 332 340 345 347 351 354 357 358 2 4 5 7 11 27 75 115 121 122 125 132 142 157 167 169 169 174 178 181 183 183 180 179 178 178 180 184 191 201 208 213 220 230 238
Height
5841 5838 5836 5834 5832 5830 5827 5823 5819 5817 5813 5809 5803 5799 5795 5791 5787 5781 5776 5770 5765 5759 5753 5747 5741 5735 5731 5729 5728 5726 5724 5721 5717 5714 5710 5706 5702 5699 5696 5694 5694 5695 5697 5700
5837 5834 5831 5829 5827 5824 5821 5817 5813 5809 5805 5801 5796 5792 5788 5784 5778 5772 5768 5763 5757 5751 5746 5740 5735 5729 5724 5722 5721 5719 5718 5715 5713 5710 5706 5703 5700 5697 5694 5693 5691 5692 5693 5695
5833 5830 5827 5825 5821 5819 5816 5812 5806 5801 5798 5793 5789 5784 5780 5775 5769 5763 5758 5754 5749 5743 5738 5733 5728 5723 5718 5715 5714 5713 5711 5710 5708 5706 5703 5700 5697 5695 5693 5692 5691 5690 5691 5692
5828 5826 5822 5821 5815 5811 5808 5803 5798 5793 5788 5784 5779 5775 5770 5764 5758 5752 5747 5743 5738 5733 5729 5725 5720 5716 5712 5708 5706 5706 5705 5705 5703 5701 5699 5696 5694 5692 5691 5690 5690 5690 5690 5691
5822 5818 5815 5812 5806 5802 5798 5792 5786 5782 5777 5771 5767 5763 5759 5752 5746 5741 5736 5731 5727 5723 5719 5715 5712 5708 5704 5700 5699 5698 5698 5699 5698 5696 5694 5692 5691 5690 5689 5689 5688 5688 5689 5689
5815 5810 5805 5802 5796 5791 5787 5780 5772 5767 5761 5756 5751 5747 5744 5738 5732 5727 5723 5719 5715 5712 5709 5706 5703 5700 5696 5693 5691 5691 5691 5692 5692 5690 5689 5688 5687 5686 5685 5685 5685 5685 5685 5685
5806 5801 5796 5788 5785 5780 5776 5770 5762 5755 5748 5742 5736 5731 5726 5721 5716 5712 5708 5705 5702 5699 5697 5696 5693 5691 5688 5685 5684 5684 5685 5686 5686 5685 5683 5682 5682 5681 5681 5681 5681 5680 5680 5680
5799 5793 5788 5780 5774 5769 5762 5755 5748 5741 5734 5727 5720 5714 5708 5703 5698 5694 5692 5689 5687 5685 5684 5684 5683 5681 5679 5677 5676 5676 5678 5679 5680 5680 5679 5678 5676 5676 5676 5677 5677 5677 5677 5678
5790 5783 5774 5768 5762 5754 5747 5740 5732 5724 5716 5709 5702 5695 5689 5684 5679 5676 5673 5672 5670 5669 5670 5671 5670 5667 5667 5667 5667 5668 5670 5671 5673 5674 5674 5673 5672 5671 5672 5673 5673 5674 5675 5676
5779 5769 5763 5755 5748 5740 5731 5722 5713 5704 5696 5687 5678 5671 5665 5661 5658 5655 5654 5653 5653 5653 5654 5656 5655 5650 5650 5654 5656 5657 5660 5663 5665 5666 5668 5668 5667 5667 5667 5668 5669 5670 5672 5674
5768 5760 5751 5741 5733 5723 5714 5703 5692 5682 5673 5663 5653 5646 5641 5638 5635 5632 5631 5632 5633 5635 5637 5640 5639 5635 5635 5640 5644 5646 5649 5653 5656 5658 5660 5661 5662 5662 5663 5664 5666 5668 5669 5671
5755 5746 5737 5727 5716 5705 5693 5682 5670 5659 5650 5640 5629 5619 5614 5611 5608 5606 5606 5608 5610 5613 5617 5622 5625 5624 5624 5627 5631 5634 5637 5642 5646 5650 5652 5654 5656 5658 5659 5661 5662 5664 5666 5668
5741 5731 5720 5708 5696 5682 5668 5656 5644 5633 5623 5613 5605 5596 5587 5583 5581 5579 5579 5581 5586 5591 5596 5601 5607 5610 5612 5614 5617 5621 5625 5630 5636 5640 5644 5647 5650 5652 5654 5656 5658 5660 5662 5664
5724 5711 5699 5687 5673 5660 5646 5634 5621 5610 5600 5590 5581 5575 5569 5563 5559 5556 5555 5555 5559 5566 5573 5580 5587 5592 5596 5597 5600 5606 5612 5618 5624 5630 5635 5639 5642 5645 5648 5651 5653 5656 5658 5660
5703 5690 5678 5665 5652 5640 5628 5616 5604 5594 5585 5576 5568 5561 5555 5550 5545 5541 5538 5536 5537 5542 5551 5559 5567 5573 5577 5581 5585 5591 5599 5606 5612 5619 5625 5630 5634 5638 5641 5644 5647 5650 5653 5654
5686 5672 5658 5645 5633 5623 5612 5602 5592 5584 5575 5566 5558 5550 5543 5538 5533 5529 5525 5522 5520 5522 5529 5539 5548 5555 5560 5565 5571 5578 5587 5595 5601 5608 5615 5621 5626 5630 5634 5637 5640 5644 5647 5648
5666 5653 5639 5627 5618 5609 5600 5591 5583 5574 5565 5556 5548 5539 5532 5526 5521 5516 5513 5509 5506 5506 5511 5520 5531 5539 5546 5552 5558 5566 5576 5584 5590 5597 5604 5611 5617 5622 5626 5630 5634 5637 5640 5642
5649 5636 5623 5612 5603 5596 5588 5580 5571 5562 5552 5543 5534 5526 5518 5512 5507 5503 5499 5495 5493 5492 5496 5505 5516 5526 5533 5540 5547 5555 5565 5574 5581 5587 5594 5600 5607 5613 5618 5623 5627 5630 5633 5635
5636 5624 5614 5604 5594 5585 5577 5568 5559 5549 5539 5529 5520 5511 5504 5497 5492 5488 5485 5482 5481 5479 5484 5493 5505 5515 5523 5530 5537 5546 5556 5566 5574 5579 5584 5590 5596 5603 5610 5616 5620 5624 5626 5629
5624 5614 5604 5594 5586 5577 5567 5558 5547 5537 5526 5516 5505 5496 5488 5482 5476 5472 5470 5470 5469 5469 5475 5486 5497 5507 5515 5522 5530 5539 5550 5560 5567 5572 5575 5580 5587 5595 5602 5608 5613 5616 5620 5622
5613 5603 5594 5585 5577 5569 5559 5548 5536 5525 5514 5503 5491 5481 5472 5465 5459 5455 5455 5457 5459 5462 5470 5481 5492 5501 5509 5517 5525 5535 5546 5555 5562 5566 5571 5576 5582 5589 5596 5601 5606 5610 5613 5616
5603 5594 5585 5577 5569 5561 5551 5539 5527 5516 5504 5492 5480 5467 5457 5449 5444 5442 5443 5446 5451 5457 5467 5479 5489 5498 5506 5514 5522 5532 5542 5551 5557 5563 5568 5574 5580 5586 5592 5596 5600 5604 5608 5611
5595 5587 5579 5571 5563 5554 5544 5534 5522 5509 5496 5484 5470 5458 5448 5441 5437 5436 5437 5441 5448 5458 5468 5479 5488 5496 5504 5511 5520 5530 5539 5547 5554 5560 5566 5572 5578 5583 5588 5592 5596 5600 5604 5606
5588 5581 5574 5566 5558 5550 5541 5530 5518 5506 5492 5479 5465 5454 5445 5439 5436 5435 5438 5444 5452 5462 5471 5480 5488 5495 5502 5510 5519 5529 5537 5545 5552 5558 5564 5570 5575 5580 5585 5589 5593 5597 5600 5602
5582 5576 5569 5562 5555 5547 5538 5529 5518 5505 5492 5478 5465 5454 5446 5441 5439 5440 5445 5451 5460 5468 5476 5483 5489 5495 5502 5511 5520 5528 5536 5544 5550 5557 5563 5568 5574 5579 5583 5587 5591 5593 5596 5597
5577 5572 5566 5560 5553 5546 5537 5528 5517 5505 5492 5480 5468 5458 5451 5448 5448 5450 5456 5462 5469 5475 5481 5487 5492 5497 5504 5512 5521 5529 5537 5544 5550 5556 5562 5567 5572 5577 5581 5585 5588 5590 5592 5594
5574 5569 5565 5559 5554 5547 5539 5530 5519 5508 5496 5484 5475 5467 5462 5459 5460 5463 5468 5473 5478 5483 5487 5491 5495 5501 5507 5515 5522 5529 5537 5544 5550 5555 5561 5566 5571 5575 5579 5582 5585 5587 5589 5591